Weather in Karamakhi

Russia / Republic of Dagestan     42°37′06″N   47°15′29″E
temp.,
°C
wind,
m/s
gust,
m/s
humid.,
%
clouds,
%
prec.,
mm/h
press.,
hPa
HPBL,
m
23 september, thu
thu2300:00+11ne1294100 0.1 1010213
03:00+11sse1197100 9.8 1010106
06:00+10nne1198100 2.6 101169
09:00+11ene2295100 2.9 1011258
12:00+11ene2393100 0.1 1010472
15:00+10ne2394100 0.2 1010517
18:00+10ne2297100 0.2 1010243
21:00+9ne1195100 0.3 1010196
24 september, fri
fri2400:00+9n119599 0.0 1009123
03:00+9n119690 0.0 100797
06:00+9ne1195100 0.0 1008138
09:00+9nne2193100 0.1 1009334
12:00+9n2294100 0.1 1010417
15:00+8ne2293100 0.2 1011588
18:00+7n2296100 1.8 1013220
21:00+7wnw4592100 5.1 1016308
25 september, sat
sat2500:00+5wsw229299 5.9 1016164
03:00+7ene118999 6.5 1015122
06:00+7ese1188100 0.0 101592
09:00+9ese337462 0.0 1014648
12:00+11e336893 0.0 1012808
15:00+11se227424 0.0 1012450
18:00+10nnw118199 0.0 101311
21:00+7ne229283 0.0 101618
26 september, sun
sun2600:00+7ne2393100 0.3 1017327
03:00+5n2495100 1.8 1020465
06:00+6wnw348788 0.3 1021411
09:00+9w226512 0.3 1021828
12:00+12nne225014 0.0 10191343
15:00+12ne326045 0.0 10191008
18:00+9ene227161 0.0 1020394
21:00+7ne01855 0.0 102111
27 september, mon
mon2700:00+6ssw21871 0.0 102013
03:00+5sw11870 0.0 101913
06:00+5sw22840 0.0 102014
09:00+11sw01590 0.0 1018636
12:00+14ne425172 0.0 10161491
15:00+11ne2266100 0.0 1017843
18:00+10ne2273100 0.0 1018440
21:00+9ene1279100 0.0 1018392